Time,TemperatureF,DewpointF,PressureIn,WindDirection,WindDirectionDegrees,WindSpeedMPH,WindSpeedGustMPH,Humidity,HourlyPrecipIn,Conditions,Clouds,dailyrainin,SoftwareType,DateUTC
2013-03-02 00:00:00,22.7,20.4,30.08,SSE,156,1.0,10.0,91,0.00,,,0.00,WUHU216DAVISVP2,2013-03-02 05:00:00,
2013-03-02 00:05:00,22.7,20.4,30.08,SSE,155,2.0,10.0,91,0.00,,,0.00,WUHU216DAVISVP2,2013-03-02 05:05:00,
2013-03-02 00:10:00,22.6,20.1,30.08,SSW,195,5.0,10.0,90,0.00,,,0.00,WUHU216DAVISVP2,2013-03-02 05:10:00,
2013-03-02 00:15:00,22.6,20.1,30.08,SSE,156,1.0,10.0,90,0.00,,,0.00,WUHU216DAVISVP2,2013-03-02 05:15:00,
2013-03-02 00:20:00,22.5,20.0,30.08,SSW,204,3.0,10.0,90,0.00,,,0.00,WUHU216DAVISVP2,2013-03-02 05:20:00,
2013-03-02 00:25:00,22.6,20.1,30.08,SSE,167,0.0,10.0,90,0.00,,,0.00,WUHU216DAVISVP2,2013-03-02 05:25:00,
2013-03-02 00:30:00,22.5,20.0,30.08,South,181,1.0,8.0,90,0.00,,,0.00,WUHU216DAVISVP2,2013-03-02 05:30:00,
2013-03-02 00:35:00,22.4,19.9,30.08,South,181,7.0,8.0,90,0.00,,,0.00,WUHU216DAVISVP2,2013-03-02 05:35:00,
2013-03-02 00:40:00,22.4,19.9,30.07,SE,143,1.0,8.0,90,0.00,,,0.00,WUHU216DAVISVP2,2013-03-02 05:40:00,
2013-03-02 00:45:00,22.4,19.9,30.08,SSE,162,0.0,8.0,90,0.00,,,0.00,WUHU216DAVISVP2,2013-03-02 05:45:00,
2013-03-02 00:50:00,22.4,19.9,30.08,SSE,153,3.0,8.0,90,0.00,,,0.00,WUHU216DAVISVP2,2013-03-02 05:50:00,
2013-03-02 00:55:00,22.4,19.9,30.08,South,184,2.0,8.0,90,0.00,,,0.00,WUHU216DAVISVP2,2013-03-02 05:55:00,
2013-03-02 01:00:00,22.4,19.9,30.08,SSE,150,6.0,6.0,90,0.00,,,0.00,WUHU216DAVISVP2,2013-03-02 06:00:00,
2013-03-02 01:05:00,22.4,19.9,30.08,SSE,168,0.0,7.0,90,0.00,,,0.00,WUHU216DAVISVP2,2013-03-02 06:05:00,
2013-03-02 01:10:00,22.4,19.9,30.08,SE,134,0.0,9.0,90,0.00,,,0.00,WUHU216DAVISVP2,2013-03-02 06:10:00,
2013-03-02 01:15:00,22.4,19.9,30.08,SSE,163,0.0,9.0,90,0.00,,,0.00,WUHU216DAVISVP2,2013-03-02 06:15:00,
2013-03-02 01:20:00,22.4,19.9,30.08,South,177,1.0,9.0,90,0.00,,,0.00,WUHU216DAVISVP2,2013-03-02 06:20:00,
2013-03-02 01:25:00,22.5,20.0,30.08,SSE,165,1.0,9.0,90,0.00,,,0.00,WUHU216DAVISVP2,2013-03-02 06:25:00,
2013-03-02 01:30:00,22.4,19.9,30.08,SE,139,2.0,6.0,90,0.00,,,0.00,WUHU216DAVISVP2,2013-03-02 06:30:00,
2013-03-02 01:35:00,22.4,19.9,30.08,SE,143,1.0,6.0,90,0.00,,,0.00,WUHU216DAVISVP2,2013-03-02 06:35:00,
2013-03-02 01:40:00,22.4,19.9,30.07,SSE,166,2.0,6.0,90,0.00,,,0.00,WUHU216DAVISVP2,2013-03-02 06:40:00,
2013-03-02 01:45:00,22.4,19.9,30.07,SSE,156,2.0,6.0,90,0.00,,,0.00,WUHU216DAVISVP2,2013-03-02 06:45:00,
2013-03-02 01:50:00,22.4,19.9,30.07,South,174,3.0,7.0,90,0.00,,,0.00,WUHU216DAVISVP2,2013-03-02 06:50:00,
2013-03-02 01:55:00,22.5,20.0,30.07,SE,145,2.0,8.0,90,0.00,,,0.00,WUHU216DAVISVP2,2013-03-02 06:55:00,
2013-03-02 02:00:00,22.5,20.0,30.07,South,169,4.0,10.0,90,0.00,,,0.00,WUHU216DAVISVP2,2013-03-02 07:00:00,
2013-03-02 02:05:00,22.4,19.3,30.07,ESE,122,0.0,10.0,88,0.00,,,0.00,WUHU216DAVISVP2,2013-03-02 07:05:00,
2013-03-02 02:10:00,22.5,19.4,30.07,SSE,155,0.0,10.0,88,0.00,,,0.00,WUHU216DAVISVP2,2013-03-02 07:10:00,
2013-03-02 02:15:00,22.4,19.1,30.07,SSE,154,1.0,12.0,87,0.00,,,0.00,WUHU216DAVISVP2,2013-03-02 07:15:00,
2013-03-02 02:20:00,22.4,19.1,30.07,SSE,158,2.0,12.0,87,0.00,,,0.00,WUHU216DAVISVP2,2013-03-02 07:20:00,
2013-03-02 02:25:00,22.4,19.1,30.07,South,188,5.0,12.0,87,0.00,,,0.00,WUHU216DAVISVP2,2013-03-02 07:25:00,
2013-03-02 02:30:00,22.3,18.7,30.07,SSE,148,3.0,12.0,86,0.00,,,0.00,WUHU216DAVISVP2,2013-03-02 07:30:00,
2013-03-02 02:35:00,22.2,18.6,30.07,SSE,163,3.0,10.0,86,0.00,,,0.00,WUHU216DAVISVP2,2013-03-02 07:35:00,
2013-03-02 02:40:00,22.3,19.0,30.07,South,170,1.0,10.0,87,0.00,,,0.00,WUHU216DAVISVP2,2013-03-02 07:40:00,
2013-03-02 02:45:00,22.3,19.0,30.07,SE,131,0.0,8.0,87,0.00,,,0.00,WUHU216DAVISVP2,2013-03-02 07:45:00,
2013-03-02 02:50:00,22.3,19.0,30.07,SSE,162,0.0,8.0,87,0.00,,,0.00,WUHU216DAVISVP2,2013-03-02 07:50:00,
2013-03-02 02:55:00,22.3,19.0,30.06,SSE,162,2.0,6.0,87,0.00,,,0.00,WUHU216DAVISVP2,2013-03-02 07:55:00,
2013-03-02 03:00:00,22.3,19.2,30.06,SE,142,1.0,6.0,88,0.00,,,0.00,WUHU216DAVISVP2,2013-03-02 08:00:00,
2013-03-02 03:05:00,22.3,19.2,30.06,SSE,158,0.0,6.0,88,0.00,,,0.00,WUHU216DAVISVP2,2013-03-02 08:05:00,
2013-03-02 03:10:00,22.3,19.2,30.06,SSE,166,0.0,6.0,88,0.00,,,0.00,WUHU216DAVISVP2,2013-03-02 08:10:00,
2013-03-02 03:15:00,22.4,19.3,30.06,SE,143,0.0,4.0,88,0.00,,,0.00,WUHU216DAVISVP2,2013-03-02 08:15:00,
2013-03-02 03:20:00,22.4,19.3,30.06,SE,141,1.0,4.0,88,0.00,,,0.00,WUHU216DAVISVP2,2013-03-02 08:20:00,
2013-03-02 03:25:00,22.4,19.3,30.06,SSE,166,2.0,4.0,88,0.00,,,0.00,WUHU216DAVISVP2,2013-03-02 08:25:00,
2013-03-02 03:30:00,22.4,19.3,30.06,SSE,148,3.0,5.0,88,0.00,,,0.00,WUHU216DAVISVP2,2013-03-02 08:30:00,
2013-03-02 03:35:00,22.4,19.4,30.06,SSE,167,3.0,6.0,88,0.00,,,0.00,WUHU216DAVISVP2,2013-03-02 08:35:00,
2013-03-02 03:40:00,22.4,19.6,30.06,SE,138,0.0,6.0,89,0.00,,,0.00,WUHU216DAVISVP2,2013-03-02 08:40:00,
2013-03-02 03:45:00,22.4,19.6,30.06,SSE,156,0.0,7.0,89,0.00,,,0.00,WUHU216DAVISVP2,2013-03-02 08:45:00,
2013-03-02 03:50:00,22.5,19.7,30.06,South,187,2.0,8.0,89,0.00,,,0.00,WUHU216DAVISVP2,2013-03-02 08:50:00,
2013-03-02 03:55:00,22.5,19.7,30.05,SE,141,1.0,8.0,89,0.00,,,0.00,WUHU216DAVISVP2,2013-03-02 08:55:00,
2013-03-02 04:00:00,22.5,19.7,30.05,South,172,3.0,8.0,89,0.00,,,0.00,WUHU216DAVISVP2,2013-03-02 09:00:00,
2013-03-02 04:05:00,22.5,19.7,30.05,SE,144,0.0,8.0,89,0.00,,,0.00,WUHU216DAVISVP2,2013-03-02 09:05:00,
2013-03-02 04:10:00,22.5,19.7,30.05,SSE,158,4.0,6.0,89,0.00,,,0.00,WUHU216DAVISVP2,2013-03-02 09:10:00,
2013-03-02 04:15:00,22.4,19.6,30.05,SSW,201,2.0,8.0,89,0.00,,,0.00,WUHU216DAVISVP2,2013-03-02 09:15:00,
2013-03-02 04:20:00,22.3,19.5,30.05,South,176,2.0,8.0,89,0.00,,,0.00,WUHU216DAVISVP2,2013-03-02 09:20:00,
2013-03-02 04:25:00,22.2,19.7,30.05,SSE,150,5.0,8.0,90,0.00,,,0.00,WUHU216DAVISVP2,2013-03-02 09:25:00,
2013-03-02 04:30:00,22.3,19.8,30.05,SE,145,1.0,8.0,90,0.00,,,0.00,WUHU216DAVISVP2,2013-03-02 09:30:00,
2013-03-02 04:35:00,22.2,19.7,30.05,SSW,210,2.0,7.0,90,0.00,,,0.00,WUHU216DAVISVP2,2013-03-02 09:35:00,
2013-03-02 04:40:00,22.2,19.7,30.05,South,186,0.0,7.0,90,0.00,,,0.00,WUHU216DAVISVP2,2013-03-02 09:40:00,
2013-03-02 04:45:00,22.2,19.7,30.05,SSE,156,0.0,6.0,90,0.00,,,0.00,WUHU216DAVISVP2,2013-03-02 09:45:00,
2013-03-02 04:50:00,22.2,19.7,30.05,South,173,1.0,5.0,90,0.00,,,0.00,WUHU216DAVISVP2,2013-03-02 09:50:00,
2013-03-02 04:55:00,22.2,19.7,30.05,South,169,3.0,5.0,90,0.00,,,0.00,WUHU216DAVISVP2,2013-03-02 09:55:00,
2013-03-02 05:00:00,22.1,19.6,30.05,SSE,167,1.0,4.0,90,0.00,,,0.00,WUHU216DAVISVP2,2013-03-02 10:00:00,
2013-03-02 05:05:00,22.1,19.6,30.05,SE,143,1.0,4.0,90,0.00,,,0.00,WUHU216DAVISVP2,2013-03-02 10:05:00,
2013-03-02 05:10:00,22.2,19.7,30.05,SSE,150,0.0,5.0,90,0.00,,,0.00,WUHU216DAVISVP2,2013-03-02 10:10:00,
2013-03-02 05:16:00,22.2,19.4,30.05,South,170,2.0,5.0,89,0.00,,,0.00,WUHU216DAVISVP2,2013-03-02 10:16:00,
2013-03-02 05:21:00,22.1,19.3,30.05,SSE,159,0.0,5.0,89,0.00,,,0.00,WUHU216DAVISVP2,2013-03-02 10:21:00,
2013-03-02 05:26:00,22.1,19.1,30.06,SSE,158,0.0,5.0,88,0.00,,,0.00,WUHU216DAVISVP2,2013-03-02 10:26:00,
2013-03-02 05:31:00,22.2,19.2,30.06,SW,215,3.0,7.0,88,0.00,,,0.00,WUHU216DAVISVP2,2013-03-02 10:31:00,
2013-03-02 05:36:00,22.1,19.0,30.06,SE,146,2.0,7.0,88,0.00,,,0.00,WUHU216DAVISVP2,2013-03-02 10:36:00,
2013-03-02 05:41:00,22.0,18.9,30.06,SW,224,5.0,7.0,88,0.00,,,0.00,WUHU216DAVISVP2,2013-03-02 10:41:00,
2013-03-02 05:46:00,22.0,18.9,30.06,SE,134,1.0,7.0,88,0.00,,,0.00,WUHU216DAVISVP2,2013-03-02 10:46:00,
2013-03-02 05:51:00,22.0,19.0,30.06,SSE,160,2.0,7.0,88,0.00,,,0.00,WUHU216DAVISVP2,2013-03-02 10:51:00,
2013-03-02 05:56:00,22.0,19.0,30.06,SSE,149,1.0,7.0,88,0.00,,,0.00,WUHU216DAVISVP2,2013-03-02 10:56:00,
2013-03-02 06:01:00,22.0,18.9,30.06,South,183,3.0,7.0,88,0.00,,,0.00,WUHU216DAVISVP2,2013-03-02 11:01:00,
2013-03-02 06:06:00,22.1,19.0,30.06,ESE,114,0.0,7.0,88,0.00,,,0.00,WUHU216DAVISVP2,2013-03-02 11:06:00,
2013-03-02 06:11:00,22.2,19.1,30.06,SSE,163,0.0,7.0,88,0.00,,,0.00,WUHU216DAVISVP2,2013-03-02 11:11:00,
2013-03-02 06:16:00,22.2,18.9,30.06,SE,138,4.0,10.0,87,0.00,,,0.00,WUHU216DAVISVP2,2013-03-02 11:16:00,
2013-03-02 06:21:00,22.2,18.6,30.06,SSE,161,1.0,10.0,86,0.00,,,0.00,WUHU216DAVISVP2,2013-03-02 11:21:00,
2013-03-02 06:26:00,22.3,18.4,30.06,SE,145,1.0,10.0,85,0.00,,,0.00,WUHU216DAVISVP2,2013-03-02 11:26:00,
2013-03-02 06:31:00,22.3,18.4,30.06,SE,131,2.0,10.0,85,0.00,,,0.00,WUHU216DAVISVP2,2013-03-02 11:31:00,
2013-03-02 06:36:00,22.1,18.5,30.06,SE,134,5.0,9.0,86,0.00,,,0.00,WUHU216DAVISVP2,2013-03-02 11:36:00,
2013-03-02 06:41:00,21.8,18.2,30.06,SE,143,1.0,9.0,86,0.00,,,0.00,WUHU216DAVISVP2,2013-03-02 11:41:00,
2013-03-02 06:46:00,21.6,18.6,30.06,SSE,147,1.0,9.0,88,0.00,,,0.00,WUHU216DAVISVP2,2013-03-02 11:46:00,
2013-03-02 06:51:00,21.3,18.5,30.06,South,186,2.0,9.0,89,0.00,,,0.00,WUHU216DAVISVP2,2013-03-02 11:51:00,
2013-03-02 06:56:00,21.1,18.6,30.06,South,183,2.0,7.0,90,0.00,,,0.00,WUHU216DAVISVP2,2013-03-02 11:56:00,
2013-03-02 07:01:00,20.8,18.3,30.07,SE,139,1.0,7.0,90,0.00,,,0.00,WUHU216DAVISVP2,2013-03-02 12:01:00,
2013-03-02 07:06:00,20.7,18.4,30.07,SE,127,0.0,6.0,91,0.00,,,0.00,WUHU216DAVISVP2,2013-03-02 12:06:00,
2013-03-02 07:11:00,20.7,18.7,30.07,SE,136,1.0,6.0,92,0.00,,,0.00,WUHU216DAVISVP2,2013-03-02 12:11:00,
2013-03-02 07:16:00,20.7,18.7,30.07,SE,136,1.0,8.0,92,0.00,,,0.00,WUHU216DAVISVP2,2013-03-02 12:16:00,
2013-03-02 07:21:00,20.8,18.8,30.07,SSW,203,2.0,8.0,92,0.00,,,0.00,WUHU216DAVISVP2,2013-03-02 12:21:00,
2013-03-02 07:26:00,20.8,18.8,30.06,SSE,154,0.0,8.0,92,0.00,,,0.00,WUHU216DAVISVP2,2013-03-02 12:26:00,
2013-03-02 07:31:00,20.9,18.9,30.07,South,186,1.0,8.0,92,0.00,,,0.00,WUHU216DAVISVP2,2013-03-02 12:31:00,
2013-03-02 07:36:00,21.1,19.1,30.07,South,173,1.0,7.0,92,0.00,,,0.00,WUHU216DAVISVP2,2013-03-02 12:36:00,
2013-03-02 07:41:00,21.1,18.8,30.07,SE,127,3.0,7.0,91,0.00,,,0.00,WUHU216DAVISVP2,2013-03-02 12:41:00,
2013-03-02 07:46:00,21.3,19.0,30.07,ESE,123,1.0,7.0,91,0.00,,,0.00,WUHU216DAVISVP2,2013-03-02 12:46:00,
2013-03-02 07:51:00,21.4,18.9,30.07,SSE,159,0.0,4.0,90,0.00,,,0.00,WUHU216DAVISVP2,2013-03-02 12:51:00,
2013-03-02 07:56:00,21.7,19.2,30.07,SSE,155,0.0,4.0,90,0.00,,,0.00,WUHU216DAVISVP2,2013-03-02 12:56:00,
2013-03-02 08:01:00,21.9,18.8,30.07,SSE,163,1.0,4.0,88,0.00,,,0.00,WUHU216DAVISVP2,2013-03-02 13:01:00,
2013-03-02 08:06:00,21.9,18.6,30.07,SSE,168,1.0,6.0,87,0.00,,,0.00,WUHU216DAVISVP2,2013-03-02 13:06:00,
2013-03-02 08:11:00,22.0,18.7,30.07,SSE,154,0.0,6.0,87,0.00,,,0.00,WUHU216DAVISVP2,2013-03-02 13:11:00,
2013-03-02 08:16:00,22.4,19.1,30.07,SE,142,0.0,6.0,87,0.00,,,0.00,WUHU216DAVISVP2,2013-03-02 13:16:00,
2013-03-02 08:21:00,22.4,19.1,30.07,SSW,198,7.0,10.0,87,0.00,,,0.00,WUHU216DAVISVP2,2013-03-02 13:21:00,
2013-03-02 08:26:00,22.3,19.3,30.07,SSE,153,1.0,10.0,88,0.00,,,0.00,WUHU216DAVISVP2,2013-03-02 13:26:00,
2013-03-02 08:31:00,22.5,19.7,30.07,SSE,162,1.0,10.0,89,0.00,,,0.00,WUHU216DAVISVP2,2013-03-02 13:31:00,
2013-03-02 08:36:00,22.6,19.8,30.07,SE,124,0.0,10.0,89,0.00,,,0.00,WUHU216DAVISVP2,2013-03-02 13:36:00,
2013-03-02 08:41:00,22.8,20.0,30.07,South,174,3.0,7.0,89,0.00,,,0.00,WUHU216DAVISVP2,2013-03-02 13:41:00,
2013-03-02 08:46:00,22.7,19.9,30.07,SSW,205,2.0,6.0,89,0.00,,,0.00,WUHU216DAVISVP2,2013-03-02 13:46:00,
2013-03-02 08:51:00,22.7,19.9,30.07,SSE,149,2.0,6.0,89,0.00,,,0.00,WUHU216DAVISVP2,2013-03-02 13:51:00,
2013-03-02 08:56:00,23.0,20.0,30.07,SSE,167,2.0,8.0,88,0.00,,,0.00,WUHU216DAVISVP2,2013-03-02 13:56:00,
2013-03-02 09:01:00,22.8,19.7,30.07,SSE,159,3.0,9.0,88,0.00,,,0.00,WUHU216DAVISVP2,2013-03-02 14:01:00,
2013-03-02 09:06:00,22.9,20.1,30.07,SSE,160,2.0,9.0,89,0.00,,,0.00,WUHU216DAVISVP2,2013-03-02 14:06:00,
2013-03-02 09:11:00,23.1,20.3,30.07,SE,128,0.0,9.0,89,0.00,,,0.00,WUHU216DAVISVP2,2013-03-02 14:11:00,
2013-03-02 09:16:00,23.3,20.5,30.07,SE,142,5.0,9.0,89,0.00,,,0.00,WUHU216DAVISVP2,2013-03-02 14:16:00,
2013-03-02 09:21:00,23.3,20.5,30.07,SSE,155,1.0,5.0,89,0.00,,,0.00,WUHU216DAVISVP2,2013-03-02 14:21:00,
2013-03-02 09:26:00,23.4,20.4,30.07,SSE,158,4.0,6.0,88,0.00,,,0.00,WUHU216DAVISVP2,2013-03-02 14:26:00,
2013-03-02 09:31:00,23.4,20.6,30.07,SSE,165,3.0,6.0,89,0.00,,,0.00,WUHU216DAVISVP2,2013-03-02 14:31:00,
2013-03-02 09:36:00,23.4,20.3,30.07,South,184,3.0,9.0,88,0.00,,,0.00,WUHU216DAVISVP2,2013-03-02 14:36:00,
2013-03-02 09:41:00,23.6,20.8,30.07,SSE,156,5.0,9.0,89,0.00,,,0.00,WUHU216DAVISVP2,2013-03-02 14:41:00,
2013-03-02 09:46:00,23.5,20.4,30.07,South,169,2.0,9.0,88,0.00,,,0.00,WUHU216DAVISVP2,2013-03-02 14:46:00,
2013-03-02 09:51:00,23.5,20.2,30.07,SSE,158,0.0,8.0,87,0.00,,,0.00,WUHU216DAVISVP2,2013-03-02 14:51:00,
2013-03-02 09:56:00,23.7,20.6,30.07,South,184,5.0,8.0,88,0.00,,,0.00,WUHU216DAVISVP2,2013-03-02 14:56:00,
2013-03-02 10:01:00,23.7,20.4,30.07,SSE,158,1.0,7.0,87,0.00,,,0.00,WUHU216DAVISVP2,2013-03-02 15:01:00,
2013-03-02 10:06:00,23.8,20.5,30.07,SSE,162,4.0,7.0,87,0.00,,,0.00,WUHU216DAVISVP2,2013-03-02 15:06:00,
2013-03-02 10:11:00,23.9,20.6,30.07,SE,145,1.0,8.0,87,0.00,,,0.00,WUHU216DAVISVP2,2013-03-02 15:11:00,
2013-03-02 10:16:00,23.6,19.7,30.07,SSW,201,5.0,11.0,85,0.00,,,0.00,WUHU216DAVISVP2,2013-03-02 15:16:00,
2013-03-02 10:21:00,23.6,20.0,30.07,SSE,160,0.0,11.0,86,0.00,,,0.00,WUHU216DAVISVP2,2013-03-02 15:21:00,
2013-03-02 10:26:00,24.0,20.4,30.07,SSE,167,4.0,11.0,86,0.00,,,0.00,WUHU216DAVISVP2,2013-03-02 15:26:00,
2013-03-02 10:31:00,24.4,21.0,30.07,South,186,3.0,11.0,87,0.00,,,0.00,WUHU216DAVISVP2,2013-03-02 15:31:00,
2013-03-02 10:36:00,24.6,20.7,30.07,SSE,151,7.0,8.0,85,0.00,,,0.00,WUHU216DAVISVP2,2013-03-02 15:36:00,
2013-03-02 10:41:00,24.3,20.4,30.07,South,172,3.0,8.0,85,0.00,,,0.00,WUHU216DAVISVP2,2013-03-02 15:41:00,
2013-03-02 10:46:00,24.3,20.1,30.07,SSE,158,6.0,13.0,84,0.00,,,0.00,WUHU216DAVISVP2,2013-03-02 15:46:00,
2013-03-02 10:51:00,24.5,20.6,30.07,SSE,152,0.0,13.0,85,0.00,,,0.00,WUHU216DAVISVP2,2013-03-02 15:51:00,
2013-03-02 10:56:00,24.4,20.2,30.07,SSE,166,4.0,13.0,84,0.00,,,0.00,WUHU216DAVISVP2,2013-03-02 15:56:00,
2013-03-02 11:01:00,24.7,21.3,30.07,ESE,114,0.0,13.0,87,0.00,,,0.00,WUHU216DAVISVP2,2013-03-02 16:01:00,
2013-03-02 11:06:00,24.7,20.5,30.07,SSE,153,3.0,10.0,84,0.00,,,0.00,WUHU216DAVISVP2,2013-03-02 16:06:00,
2013-03-02 11:11:00,24.5,20.9,30.07,SSE,150,1.0,10.0,86,0.00,,,0.00,WUHU216DAVISVP2,2013-03-02 16:11:00,
2013-03-02 11:16:00,24.5,20.6,30.07,South,183,4.0,10.0,85,0.00,,,0.00,WUHU216DAVISVP2,2013-03-02 16:16:00,
2013-03-02 11:21:00,24.5,20.9,30.07,ESE,115,0.0,10.0,86,0.00,,,0.00,WUHU216DAVISVP2,2013-03-02 16:21:00,
2013-03-02 11:26:00,24.6,20.7,30.07,SSE,149,3.0,10.0,85,0.00,,,0.00,WUHU216DAVISVP2,2013-03-02 16:26:00,
2013-03-02 11:31:00,24.4,20.5,30.07,SSE,160,3.0,10.0,85,0.00,,,0.00,WUHU216DAVISVP2,2013-03-02 16:31:00,
2013-03-02 11:36:00,24.2,20.6,30.07,SSE,159,2.0,8.0,86,0.00,,,0.00,WUHU216DAVISVP2,2013-03-02 16:36:00,
2013-03-02 11:41:00,24.0,20.4,30.07,SSE,153,3.0,7.0,86,0.00,,,0.00,WUHU216DAVISVP2,2013-03-02 16:41:00,
2013-03-02 11:46:00,23.6,20.0,30.07,South,172,2.0,10.0,86,0.00,,,0.00,WUHU216DAVISVP2,2013-03-02 16:46:00,
2013-03-02 11:51:00,23.6,20.3,30.07,SSE,149,1.0,10.0,87,0.00,,,0.00,WUHU216DAVISVP2,2013-03-02 16:51:00,
2013-03-02 11:56:00,23.7,20.4,30.07,SE,143,0.0,10.0,87,0.00,,,0.00,WUHU216DAVISVP2,2013-03-02 16:56:00,
2013-03-02 12:01:00,23.8,20.5,30.07,South,172,2.0,7.0,87,0.00,,,0.00,WUHU216DAVISVP2,2013-03-02 17:01:00,
2013-03-02 12:06:00,23.7,20.4,30.07,SSE,149,0.0,7.0,87,0.00,,,0.00,WUHU216DAVISVP2,2013-03-02 17:06:00,
2013-03-02 12:11:00,23.8,20.5,30.07,SSE,155,1.0,6.0,87,0.00,,,0.00,WUHU216DAVISVP2,2013-03-02 17:11:00,
2013-03-02 12:16:00,23.8,20.2,30.07,ENE,67,0.0,7.0,86,0.00,,,0.00,WUHU216DAVISVP2,2013-03-02 17:16:00,
2013-03-02 12:21:00,23.8,20.2,30.07,SE,131,2.0,7.0,86,0.00,,,0.00,WUHU216DAVISVP2,2013-03-02 17:21:00,
2013-03-02 12:26:00,23.7,20.1,30.07,SSW,197,4.0,7.0,86,0.00,,,0.00,WUHU216DAVISVP2,2013-03-02 17:26:00,
2013-03-02 12:31:00,23.6,20.0,30.07,SE,134,2.0,7.0,86,0.00,,,0.00,WUHU216DAVISVP2,2013-03-02 17:31:00,
2013-03-02 12:36:00,23.8,20.5,30.07,SSW,203,5.0,7.0,87,0.00,,,0.00,WUHU216DAVISVP2,2013-03-02 17:36:00,
2013-03-02 12:41:00,23.8,20.5,30.07,SSE,152,0.0,7.0,87,0.00,,,0.00,WUHU216DAVISVP2,2013-03-02 17:41:00,
2013-03-02 12:46:00,24.0,20.7,30.07,SSE,151,0.0,7.0,87,0.00,,,0.00,WUHU216DAVISVP2,2013-03-02 17:46:00,
2013-03-02 12:51:00,24.1,20.8,30.07,South,177,1.0,8.0,87,0.00,,,0.00,WUHU216DAVISVP2,2013-03-02 17:51:00,
2013-03-02 12:56:00,24.2,20.9,30.07,ESE,109,0.0,8.0,87,0.00,,,0.00,WUHU216DAVISVP2,2013-03-02 17:56:00,
2013-03-02 13:01:00,24.1,20.5,30.06,SE,141,0.0,7.0,86,0.00,,,0.00,WUHU216DAVISVP2,2013-03-02 18:01:00,
2013-03-02 13:06:00,24.3,20.9,30.06,South,188,2.0,7.0,87,0.00,,,0.00,WUHU216DAVISVP2,2013-03-02 18:06:00,
2013-03-02 13:11:00,24.4,21.0,30.06,SE,140,1.0,6.0,87,0.00,,,0.00,WUHU216DAVISVP2,2013-03-02 18:11:00,
2013-03-02 13:16:00,24.4,21.0,30.06,SSE,153,2.0,6.0,87,0.00,,,0.00,WUHU216DAVISVP2,2013-03-02 18:16:00,
2013-03-02 13:21:00,24.6,21.2,30.06,SE,124,0.0,6.0,87,0.00,,,0.00,WUHU216DAVISVP2,2013-03-02 18:21:00,
2013-03-02 13:26:00,24.8,21.2,30.06,SSE,158,1.0,6.0,86,0.00,,,0.00,WUHU216DAVISVP2,2013-03-02 18:26:00,
2013-03-02 13:31:00,24.7,21.1,30.06,SE,139,1.0,7.0,86,0.00,,,0.00,WUHU216DAVISVP2,2013-03-02 18:31:00,
2013-03-02 13:36:00,24.4,20.8,30.06,South,181,4.0,9.0,86,0.00,,,0.00,WUHU216DAVISVP2,2013-03-02 18:36:00,
2013-03-02 13:41:00,24.2,20.9,30.05,SSE,153,0.0,9.0,87,0.00,,,0.00,WUHU216DAVISVP2,2013-03-02 18:41:00,
2013-03-02 13:46:00,24.3,20.9,30.05,South,182,4.0,9.0,87,0.00,,,0.00,WUHU216DAVISVP2,2013-03-02 18:46:00,
2013-03-02 13:51:00,24.1,20.8,30.05,South,172,1.0,9.0,87,0.00,,,0.00,WUHU216DAVISVP2,2013-03-02 18:51:00,
2013-03-02 13:56:00,24.3,20.9,30.05,South,174,2.0,8.0,87,0.00,,,0.00,WUHU216DAVISVP2,2013-03-02 18:56:00,
2013-03-02 14:01:00,24.4,21.0,30.06,SSW,193,1.0,8.0,87,0.00,,,0.00,WUHU216DAVISVP2,2013-03-02 19:01:00,
2013-03-02 14:06:00,24.5,21.2,30.06,SE,135,2.0,8.0,87,0.00,,,0.00,WUHU216DAVISVP2,2013-03-02 19:06:00,
2013-03-02 14:11:00,24.6,21.2,30.05,SSE,159,1.0,6.0,87,0.00,,,0.00,WUHU216DAVISVP2,2013-03-02 19:11:00,
2013-03-02 14:16:00,24.6,21.2,30.05,SSW,198,4.0,7.0,87,0.00,,,0.00,WUHU216DAVISVP2,2013-03-02 19:16:00,
2013-03-02 14:21:00,24.6,21.0,30.05,ENE,77,0.0,7.0,86,0.00,,,0.00,WUHU216DAVISVP2,2013-03-02 19:21:00,
2013-03-02 14:26:00,24.8,21.2,30.05,SSE,163,0.0,8.0,86,0.00,,,0.00,WUHU216DAVISVP2,2013-03-02 19:26:00,
2013-03-02 14:31:00,25.1,21.5,30.05,SSW,194,3.0,8.0,86,0.00,,,0.00,WUHU216DAVISVP2,2013-03-02 19:31:00,
2013-03-02 14:36:00,25.0,21.4,30.05,South,173,4.0,8.0,86,0.00,,,0.00,WUHU216DAVISVP2,2013-03-02 19:36:00,
2013-03-02 14:41:00,25.2,21.6,30.05,South,172,4.0,8.0,86,0.00,,,0.00,WUHU216DAVISVP2,2013-03-02 19:41:00,
2013-03-02 14:46:00,25.1,21.5,30.05,SE,131,2.0,7.0,86,0.00,,,0.00,WUHU216DAVISVP2,2013-03-02 19:46:00,
2013-03-02 14:51:00,25.3,21.7,30.05,SSE,165,2.0,7.0,86,0.00,,,0.00,WUHU216DAVISVP2,2013-03-02 19:51:00,
2013-03-02 14:56:00,25.3,21.7,30.05,ENE,77,2.0,10.0,86,0.00,,,0.00,WUHU216DAVISVP2,2013-03-02 19:56:00,
2013-03-02 15:01:00,25.4,21.8,30.05,SSE,159,0.0,10.0,86,0.00,,,0.00,WUHU216DAVISVP2,2013-03-02 20:01:00,
2013-03-02 15:06:00,25.4,21.8,30.05,SSW,193,4.0,9.0,86,0.00,,,0.00,WUHU216DAVISVP2,2013-03-02 20:06:00,
2013-03-02 15:11:00,25.3,21.9,30.05,SE,136,1.0,9.0,87,0.00,,,0.00,WUHU216DAVISVP2,2013-03-02 20:11:00,
2013-03-02 15:16:00,25.4,22.1,30.05,SE,139,1.0,7.0,87,0.00,,,0.00,WUHU216DAVISVP2,2013-03-02 20:16:00,
2013-03-02 15:21:00,25.5,22.1,30.05,South,169,1.0,7.0,87,0.00,,,0.00,WUHU216DAVISVP2,2013-03-02 20:21:00,
2013-03-02 15:26:00,25.3,21.7,30.05,SSE,166,2.0,7.0,86,0.00,,,0.00,WUHU216DAVISVP2,2013-03-02 20:26:00,
2013-03-02 15:31:00,25.3,21.9,30.05,SW,224,8.0,8.0,87,0.00,,,0.00,WUHU216DAVISVP2,2013-03-02 20:31:00,
2013-03-02 15:36:00,25.2,21.8,30.05,SE,142,0.0,8.0,87,0.00,,,0.00,WUHU216DAVISVP2,2013-03-02 20:36:00,
2013-03-02 15:41:00,25.3,21.9,30.05,SSE,159,0.0,7.0,87,0.00,,,0.00,WUHU216DAVISVP2,2013-03-02 20:41:00,
2013-03-02 15:46:00,25.3,21.9,30.05,SSE,165,1.0,7.0,87,0.00,,,0.00,WUHU216DAVISVP2,2013-03-02 20:46:00,
2013-03-02 15:51:00,25.2,21.8,30.05,SE,131,0.0,5.0,87,0.00,,,0.00,WUHU216DAVISVP2,2013-03-02 20:51:00,
2013-03-02 15:56:00,25.2,22.1,30.05,SE,131,3.0,5.0,88,0.00,,,0.00,WUHU216DAVISVP2,2013-03-02 20:56:00,
2013-03-02 16:01:00,25.1,22.0,30.05,SSE,150,1.0,5.0,88,0.00,,,0.00,WUHU216DAVISVP2,2013-03-02 21:01:00,
2013-03-02 16:06:00,25.2,22.1,30.05,SE,134,0.0,5.0,88,0.00,,,0.00,WUHU216DAVISVP2,2013-03-02 21:06:00,
2013-03-02 16:11:00,25.1,22.0,30.05,SSE,162,1.0,7.0,88,0.00,,,0.00,WUHU216DAVISVP2,2013-03-02 21:11:00,
2013-03-02 16:16:00,25.0,21.9,30.05,ESE,117,0.0,7.0,88,0.00,,,0.00,WUHU216DAVISVP2,2013-03-02 21:16:00,
2013-03-02 16:21:00,25.1,22.3,30.05,SSE,165,1.0,7.0,89,0.00,,,0.00,WUHU216DAVISVP2,2013-03-02 21:21:00,
2013-03-02 16:26:00,25.2,22.4,30.05,ESE,117,1.0,7.0,89,0.00,,,0.00,WUHU216DAVISVP2,2013-03-02 21:26:00,
2013-03-02 16:31:00,25.2,22.4,30.05,SSW,203,4.0,6.0,89,0.00,,,0.00,WUHU216DAVISVP2,2013-03-02 21:31:00,
2013-03-02 16:36:00,25.2,22.4,30.05,East,101,1.0,6.0,89,0.00,,,0.00,WUHU216DAVISVP2,2013-03-02 21:36:00,
2013-03-02 16:41:00,25.2,22.4,30.05,ESE,122,0.0,6.0,89,0.00,,,0.00,WUHU216DAVISVP2,2013-03-02 21:41:00,
2013-03-02 16:46:00,25.3,22.5,30.05,ESE,121,0.0,6.0,89,0.00,,,0.00,WUHU216DAVISVP2,2013-03-02 21:46:00,
2013-03-02 16:51:00,25.3,22.5,30.05,ESE,116,1.0,6.0,89,0.00,,,0.00,WUHU216DAVISVP2,2013-03-02 21:51:00,
2013-03-02 16:56:00,25.3,22.5,30.05,SSE,159,1.0,7.0,89,0.00,,,0.00,WUHU216DAVISVP2,2013-03-02 21:56:00,
2013-03-02 17:01:00,25.3,22.2,30.05,ESE,117,0.0,7.0,88,0.00,,,0.00,WUHU216DAVISVP2,2013-03-02 22:01:00,
2013-03-02 17:06:00,25.2,22.1,30.05,SE,124,0.0,7.0,88,0.00,,,0.00,WUHU216DAVISVP2,2013-03-02 22:06:00,
2013-03-02 17:11:00,25.2,22.1,30.05,South,171,2.0,7.0,88,0.00,,,0.00,WUHU216DAVISVP2,2013-03-02 22:11:00,
2013-03-02 17:16:00,25.2,22.4,30.05,SSE,163,1.0,6.0,89,0.00,,,0.00,WUHU216DAVISVP2,2013-03-02 22:16:00,
2013-03-02 17:21:00,25.1,22.3,30.05,SSE,164,0.0,7.0,89,0.00,,,0.00,WUHU216DAVISVP2,2013-03-02 22:21:00,
2013-03-02 17:26:00,25.1,22.3,30.05,ESE,118,1.0,7.0,89,0.00,,,0.00,WUHU216DAVISVP2,2013-03-02 22:26:00,
2013-03-02 17:31:00,25.1,22.5,30.06,ESE,113,0.0,7.0,90,0.00,,,0.00,WUHU216DAVISVP2,2013-03-02 22:31:00,
2013-03-02 17:36:00,25.2,22.7,30.06,SSE,155,1.0,7.0,90,0.00,,,0.00,WUHU216DAVISVP2,2013-03-02 22:36:00,
2013-03-02 17:41:00,25.2,22.6,30.06,South,181,2.0,7.0,90,0.00,,,0.00,WUHU216DAVISVP2,2013-03-02 22:41:00,
2013-03-02 17:46:00,25.1,22.5,30.06,SE,131,1.0,6.0,90,0.00,,,0.00,WUHU216DAVISVP2,2013-03-02 22:46:00,
2013-03-02 17:51:00,25.1,22.8,30.06,SE,146,0.0,6.0,91,0.00,,,0.00,WUHU216DAVISVP2,2013-03-02 22:51:00,
2013-03-02 17:56:00,25.1,22.8,30.06,South,184,3.0,7.0,91,0.00,,,0.00,WUHU216DAVISVP2,2013-03-02 22:56:00,
2013-03-02 18:01:00,25.0,22.7,30.06,SSW,195,2.0,7.0,91,0.00,,,0.00,WUHU216DAVISVP2,2013-03-02 23:01:00,
2013-03-02 18:06:00,25.0,22.7,30.06,SE,128,0.0,11.0,91,0.00,,,0.00,WUHU216DAVISVP2,2013-03-02 23:06:00,
2013-03-02 18:11:00,25.0,22.7,30.06,SSE,164,2.0,11.0,91,0.00,,,0.00,WUHU216DAVISVP2,2013-03-02 23:11:00,
2013-03-02 18:16:00,25.0,22.7,30.07,SE,136,3.0,11.0,91,0.00,,,0.00,WUHU216DAVISVP2,2013-03-02 23:16:00,
2013-03-02 18:21:00,25.0,22.7,30.07,SW,231,6.0,11.0,91,0.00,,,0.00,WUHU216DAVISVP2,2013-03-02 23:21:00,
2013-03-02 18:26:00,24.9,22.6,30.07,South,180,1.0,8.0,91,0.00,,,0.00,WUHU216DAVISVP2,2013-03-02 23:26:00,
2013-03-02 18:31:00,24.8,22.5,30.07,SSW,196,6.0,8.0,91,0.00,,,0.00,WUHU216DAVISVP2,2013-03-02 23:31:00,
2013-03-02 18:36:00,24.7,22.4,30.07,SW,217,6.0,12.0,91,0.00,,,0.00,WUHU216DAVISVP2,2013-03-02 23:36:00,
2013-03-02 18:41:00,24.7,22.4,30.07,SSE,165,0.0,13.0,91,0.00,,,0.00,WUHU216DAVISVP2,2013-03-02 23:41:00,
2013-03-02 18:46:00,24.7,22.7,30.07,SE,144,1.0,13.0,92,0.00,,,0.00,WUHU216DAVISVP2,2013-03-02 23:46:00,
2013-03-02 18:51:00,24.7,22.7,30.07,SSE,155,0.0,13.0,92,0.00,,,0.00,WUHU216DAVISVP2,2013-03-02 23:51:00,
2013-03-02 18:56:00,24.7,22.7,30.07,South,191,3.0,13.0,92,0.00,,,0.00,WUHU216DAVISVP2,2013-03-02 23:56:00,
2013-03-02 19:01:00,24.6,22.6,30.07,SE,134,1.0,11.0,92,0.00,,,0.00,WUHU216DAVISVP2,2013-03-03 00:01:00,
2013-03-02 19:06:00,24.6,22.6,30.07,SSW,194,3.0,12.0,92,0.00,,,0.00,WUHU216DAVISVP2,2013-03-03 00:06:00,
2013-03-02 19:11:00,24.6,22.6,30.07,ESE,122,2.0,12.0,92,0.00,,,0.00,WUHU216DAVISVP2,2013-03-03 00:11:00,
2013-03-02 19:16:00,24.6,22.6,30.07,SE,127,1.0,12.0,92,0.00,,,0.00,WUHU216DAVISVP2,2013-03-03 00:16:00,
2013-03-02 19:21:00,24.5,22.5,30.07,SSE,162,1.0,12.0,92,0.00,,,0.00,WUHU216DAVISVP2,2013-03-03 00:21:00,
2013-03-02 19:26:00,24.5,22.5,30.07,ESE,103,1.0,8.0,92,0.00,,,0.00,WUHU216DAVISVP2,2013-03-03 00:26:00,
2013-03-02 19:31:00,24.5,22.2,30.07,ESE,119,2.0,12.0,91,0.00,,,0.00,WUHU216DAVISVP2,2013-03-03 00:31:00,
2013-03-02 19:36:00,24.5,22.2,30.07,SSE,166,2.0,12.0,91,0.00,,,0.00,WUHU216DAVISVP2,2013-03-03 00:36:00,
2013-03-02 19:41:00,24.4,22.1,30.07,SE,134,5.0,12.0,91,0.00,,,0.00,WUHU216DAVISVP2,2013-03-03 00:41:00,
2013-03-02 19:46:00,24.4,22.1,30.07,ESE,108,2.0,12.0,91,0.00,,,0.00,WUHU216DAVISVP2,2013-03-03 00:46:00,
2013-03-02 19:51:00,24.4,21.8,30.07,South,184,3.0,10.0,90,0.00,,,0.00,WUHU216DAVISVP2,2013-03-03 00:51:00,
2013-03-02 19:56:00,24.3,21.8,30.07,South,186,3.0,10.0,90,0.00,,,0.00,WUHU216DAVISVP2,2013-03-03 00:56:00,
2013-03-02 20:01:00,24.3,21.7,30.07,SE,143,0.0,9.0,90,0.00,,,0.00,WUHU216DAVISVP2,2013-03-03 01:01:00,
2013-03-02 20:06:00,24.3,21.7,30.07,SSE,148,1.0,11.0,90,0.00,,,0.00,WUHU216DAVISVP2,2013-03-03 01:06:00,
2013-03-02 20:11:00,24.4,21.8,30.07,SE,143,0.0,11.0,90,0.00,,,0.00,WUHU216DAVISVP2,2013-03-03 01:11:00,
2013-03-02 20:16:00,24.3,21.7,30.07,SSW,203,9.0,10.0,90,0.00,,,0.00,WUHU216DAVISVP2,2013-03-03 01:16:00,
2013-03-02 20:21:00,24.3,21.7,30.07,South,179,4.0,10.0,90,0.00,,,0.00,WUHU216DAVISVP2,2013-03-03 01:21:00,
2013-03-02 20:26:00,24.3,21.8,30.07,South,183,7.0,11.0,90,0.00,,,0.00,WUHU216DAVISVP2,2013-03-03 01:26:00,
2013-03-02 20:31:00,24.3,21.7,30.07,SE,139,1.0,11.0,90,0.00,,,0.00,WUHU216DAVISVP2,2013-03-03 01:31:00,
2013-03-02 20:36:00,24.3,21.7,30.07,SW,222,5.0,11.0,90,0.00,,,0.00,WUHU216DAVISVP2,2013-03-03 01:36:00,
2013-03-02 20:41:00,24.4,21.8,30.07,ESE,117,1.0,11.0,90,0.00,,,0.00,WUHU216DAVISVP2,2013-03-03 01:41:00,
2013-03-02 20:46:00,24.4,21.8,30.07,South,188,4.0,7.0,90,0.00,,,0.00,WUHU216DAVISVP2,2013-03-03 01:46:00,
2013-03-02 20:51:00,24.4,21.8,30.07,SSE,162,0.0,8.0,90,0.00,,,0.00,WUHU216DAVISVP2,2013-03-03 01:51:00,
2013-03-02 20:56:00,24.4,21.8,30.07,South,172,2.0,8.0,90,0.00,,,0.00,WUHU216DAVISVP2,2013-03-03 01:56:00,
2013-03-02 21:01:00,24.3,21.7,30.07,NE,54,1.0,11.0,90,0.00,,,0.00,WUHU216DAVISVP2,2013-03-03 02:01:00,
2013-03-02 21:06:00,24.2,21.6,30.07,SE,142,2.0,12.0,90,0.00,,,0.00,WUHU216DAVISVP2,2013-03-03 02:06:00,
2013-03-02 21:11:00,24.2,21.6,30.08,South,176,7.0,12.0,90,0.00,,,0.00,WUHU216DAVISVP2,2013-03-03 02:11:00,
2013-03-02 21:16:00,24.2,21.4,30.08,SE,141,2.0,12.0,89,0.00,,,0.00,WUHU216DAVISVP2,2013-03-03 02:16:00,
2013-03-02 21:21:00,24.1,21.3,30.08,SSE,148,2.0,12.0,89,0.00,,,0.00,WUHU216DAVISVP2,2013-03-03 02:21:00,
2013-03-02 21:26:00,24.1,21.3,30.08,SSE,167,3.0,11.0,89,0.00,,,0.00,WUHU216DAVISVP2,2013-03-03 02:26:00,
2013-03-02 21:31:00,24.1,21.3,30.08,SE,140,4.0,11.0,89,0.00,,,0.00,WUHU216DAVISVP2,2013-03-03 02:31:00,
2013-03-02 21:36:00,24.0,21.2,30.08,SE,131,0.0,11.0,89,0.00,,,0.00,WUHU216DAVISVP2,2013-03-03 02:36:00,
2013-03-02 21:41:00,24.0,21.2,30.08,SSE,159,2.0,11.0,89,0.00,,,0.00,WUHU216DAVISVP2,2013-03-03 02:41:00,
2013-03-02 21:46:00,24.0,21.2,30.08,South,179,5.0,9.0,89,0.00,,,0.00,WUHU216DAVISVP2,2013-03-03 02:46:00,
2013-03-02 21:51:00,24.0,21.2,30.08,South,188,2.0,9.0,89,0.00,,,0.00,WUHU216DAVISVP2,2013-03-03 02:51:00,
2013-03-02 21:56:00,24.0,21.2,30.08,SSE,160,1.0,9.0,89,0.00,,,0.00,WUHU216DAVISVP2,2013-03-03 02:56:00,
2013-03-02 22:01:00,24.0,21.2,30.08,ESE,120,1.0,9.0,89,0.00,,,0.00,WUHU216DAVISVP2,2013-03-03 03:01:00,
2013-03-02 22:06:00,24.0,21.5,30.08,South,186,3.0,9.0,90,0.00,,,0.00,WUHU216DAVISVP2,2013-03-03 03:06:00,
2013-03-02 22:11:00,24.0,21.4,30.08,SE,142,2.0,9.0,90,0.00,,,0.00,WUHU216DAVISVP2,2013-03-03 03:11:00,
2013-03-02 22:16:00,24.0,21.2,30.08,SSW,196,3.0,9.0,89,0.00,,,0.00,WUHU216DAVISVP2,2013-03-03 03:16:00,
2013-03-02 22:21:00,23.9,21.1,30.08,SE,129,1.0,9.0,89,0.00,,,0.00,WUHU216DAVISVP2,2013-03-03 03:21:00,
2013-03-02 22:26:00,23.9,21.1,30.08,SE,140,1.0,7.0,89,0.00,,,0.00,WUHU216DAVISVP2,2013-03-03 03:26:00,
2013-03-02 22:31:00,23.8,21.0,30.08,South,183,3.0,7.0,89,0.00,,,0.00,WUHU216DAVISVP2,2013-03-03 03:31:00,
2013-03-02 22:36:00,23.8,21.0,30.07,SE,143,1.0,8.0,89,0.00,,,0.00,WUHU216DAVISVP2,2013-03-03 03:36:00,
2013-03-02 22:41:00,23.8,20.7,30.07,SSE,158,0.0,9.0,88,0.00,,,0.00,WUHU216DAVISVP2,2013-03-03 03:41:00,
2013-03-02 22:46:00,23.7,20.6,30.07,SSE,155,8.0,10.0,88,0.00,,,0.00,WUHU216DAVISVP2,2013-03-03 03:46:00,
2013-03-02 22:51:00,23.7,20.6,30.07,SE,134,0.0,10.0,88,0.00,,,0.00,WUHU216DAVISVP2,2013-03-03 03:51:00,
2013-03-02 22:56:00,23.7,20.6,30.07,SSE,160,2.0,10.0,88,0.00,,,0.00,WUHU216DAVISVP2,2013-03-03 03:56:00,
2013-03-02 23:01:00,23.6,20.3,30.07,SE,129,1.0,10.0,87,0.00,,,0.00,WUHU216DAVISVP2,2013-03-03 04:01:00,
2013-03-02 23:06:00,23.6,20.3,30.07,South,184,4.0,7.0,87,0.00,,,0.00,WUHU216DAVISVP2,2013-03-03 04:06:00,
2013-03-02 23:11:00,23.5,19.9,30.07,SSW,195,8.0,10.0,86,0.00,,,0.00,WUHU216DAVISVP2,2013-03-03 04:11:00,
2013-03-02 23:16:00,23.4,19.8,30.07,WSW,245,11.0,11.0,86,0.00,,,0.00,WUHU216DAVISVP2,2013-03-03 04:16:00,
2013-03-02 23:21:00,23.4,19.8,30.07,SSE,155,0.0,11.0,86,0.00,,,0.00,WUHU216DAVISVP2,2013-03-03 04:21:00,
2013-03-02 23:26:00,23.4,19.8,30.07,South,184,1.0,11.0,86,0.00,,,0.00,WUHU216DAVISVP2,2013-03-03 04:26:00,
2013-03-02 23:31:00,23.4,19.8,30.07,SE,135,0.0,10.0,86,0.00,,,0.00,WUHU216DAVISVP2,2013-03-03 04:31:00,
2013-03-02 23:36:00,23.4,19.8,30.07,SE,135,1.0,7.0,86,0.00,,,0.00,WUHU216DAVISVP2,2013-03-03 04:36:00,
2013-03-02 23:41:00,23.3,19.7,30.07,ESE,108,1.0,7.0,86,0.00,,,0.00,WUHU216DAVISVP2,2013-03-03 04:41:00,
2013-03-02 23:46:00,23.3,19.7,30.07,ESE,117,1.0,7.0,86,0.00,,,0.00,WUHU216DAVISVP2,2013-03-03 04:46:00,
2013-03-02 23:51:00,23.2,19.9,30.07,East,88,1.0,7.0,87,0.00,,,0.00,WUHU216DAVISVP2,2013-03-03 04:51:00,
2013-03-02 23:56:00,23.1,19.8,30.07,SSE,168,0.0,7.0,87,0.00,,,0.00,WUHU216DAVISVP2,2013-03-03 04:56:00,